"SCET";"TARGET";"ELECTRON_DENSITY";"ERROR_FLAG";"ELECTRON_DENSITY_ERROR";"FREQ_FCE";"MEASURED_VALUE";"MEASURED_ITEM";"FREQ_PLASMA";"FREQ_UPPER_HYBRID";"FREQ_R_EQUALS_ZERO";"FREQ_L_EQUALS_ZERO";"ORBIT_NUMBER";"SATURN_RADIUS";"SATURN_IAU_LONGITUDE";"SATURN_SLS4_S_LONGITUDE";"SATURN_SLS4_N_LONGITUDE";"SATURN_SLS5_S_LONGITUDE";"SATURN_SLS5_N_LONGITUDE";"SATURN_LOCAL_TIME";"SATURN_KRONOGRAPHIC_LATITUDE";"SATURN_MAGNETIC_LATITUDE";"SATURN_L";"SATURN_L_OFFSET";"SATURN_SOLAR_EQUATORIAL_X";"SATURN_SOLAR_EQUATORIAL_Y";"SATURN_SOLAR_EQUATORIAL_Z";"SATURN_ALTITUDE";"ENCELADUS_ENCOUNTER_NUMBER";"ENCELADUS_RADIUS";"ENCELADUS_COROTATIONAL_X";"ENCELADUS_COROTATIONAL_Y";"ENCELADUS_COROTATIONAL_Z";"ENCELADUS_TRUE_ANOMALY";"ENCELADUS_PERIAPSIS_TIME";"JUPITER_RADIUS";"JUPITER_SYSTEMIII_LONGITUDE";"JUPITER_MAGNETIC_LATITUDE";"JUPITER_MAGNETIC_LOCAL_TIME";"JUPITER_L";"IO_PHASE";"EARTH_RADIUS";"EARTH_MAGNETIC_LATITUDE";"EARTH_LOCAL_TIME";"EARTH_L"
"[UTC]";"[0=Saturn, 1=Enceladus, 2=Jupiter, 3=Earth]";"[cm-3]";"[0=automated, 1=manual]";"[normalized density error]";"[Hz]";"[Hz]";"[0=upper hybrid frequency, 1=plasma frequency cutoff]";"[Hz]";"[Hz]";"[Hz]";"[Hz}";"[0, A, B, C, 3, 4, ... , 292, 293]";"[Rs where 1Rs=60268km]";"[degrees]";"[degrees]";"[degrees]";"[degrees]";"[degrees]";"[hours]";"[degrees]";"[degrees where offset=2293km north]";"[Rs where 1Rs=60268km]";"[Rs where 1Rs=60268km and offset=2293km north]";"[Rs where 1Rs=60268km]";"[Rs where 1Rs=60268km]";"[Rs where 1Rs=60268km]";"[km where ellipsoid a,b=60268km and c=54364km]";"[E0, E1, E2, ... , E21, E22]";"[Renc where 1Renc=252.1km]";"[Renc where 1Renc=252.1km]";"[Renc where 1Renc=252.1km]";"[Renc where 1Renc=252.1km]";"[degrees]";"[UTC]";"[Rj where 1Rj=71492km]";"[degrees]";"[degrees using JRM09 model]";"[hours using JRM09 model]";"[Rj where 1Rj=71492km]";"[degrees]";"[Re where 1Re=6378.1366km]";"[degrees]";"[hours]";"[Re where 1Re=6378.1366km]"
2005-05-21T00:01:00.117Z;0;6.9570e+00;0;     0.391;  3690.960;  23971.549; 0;  23685.691;  23971.549;  25602.959;  21911.998;  8;   5.468; 173.660; 176.504;; 185.959; 159.174;  14.670; -14.235; -14.621;   5.820;   5.472;   4.058;   3.411;  -1.345;;;;;;;;;;;;;;;;;;
2005-05-21T00:01:16.117Z;0;6.5700e+00;0;     0.276;  3710.952;  23314.355; 0;  23017.125;  23314.355;  24947.268;  21236.314;  8;   5.466; 173.778; 176.620;; 186.075; 159.293;  14.672; -14.226; -14.612;   5.818;   5.470;   4.054;   3.412;  -1.343;;;;;;;;;;;;;;;;;;
2005-05-21T00:01:32.117Z;0;6.8320e+00;0;     0.392;  3710.952;  23764.369; 0;  23472.838;  23764.369;  25401.535;  21690.582;  8;   5.464; 173.895; 176.736;; 186.191; 159.413;  14.674; -14.216; -14.602;   5.815;   5.468;   4.051;   3.413;  -1.342;;;;;;;;;;;;;;;;;;
2005-05-21T00:01:48.117Z;0;7.2950e+00;0;     0.408;  3719.240;  24538.535; 0;  24255.039;  24538.535;  26185.844;  22466.604;  8;   5.462; 174.013; 176.851;; 186.307; 159.532;  14.676; -14.207; -14.593;   5.812;   5.466;   4.048;   3.414;  -1.340;;;;;;;;;;;;;;;;;;
2005-05-21T00:02:04.117Z;0;7.6360e+00;0;     0.344;  3719.240;  25092.361; 0;  24815.193;  25092.361;  26744.395;  23025.154;  8;   5.460; 174.131; 176.967;; 186.423; 159.652;  14.678; -14.197; -14.584;   5.809;   5.464;   4.044;   3.415;  -1.339;;;;;;;;;;;;;;;;;;
2005-05-21T00:02:20.117Z;0;7.6160e+00;0;     0.331;  3728.340;  25061.789; 0;  24782.912;  25061.789;  26717.096;  22988.756;  8;   5.458; 174.248; 177.083;; 186.539; 159.771;  14.681; -14.188; -14.574;   5.807;   5.462;   4.041;   3.416;  -1.338;;;;;;;;;;;;;;;;;;
2005-05-21T00:02:36.117Z;0;7.7080e+00;0;     0.323;  3728.340;  25208.293; 0;  24931.055;  25208.293;  26864.822;  23136.482;  8;   5.456; 174.366; 177.199;; 186.655; 159.891;  14.683; -14.178; -14.565;   5.804;   5.460;   4.038;   3.417;  -1.336;;;;;;;;;;;;;;;;;;
2005-05-21T00:02:52.117Z;0;7.6430e+00;0;     0.309;  3736.320;  25106.289; 0;  24826.713;  25106.289;  26765.061;  23028.740;  8;   5.454; 174.484; 177.314;; 186.771; 160.010;  14.685; -14.169; -14.556;   5.801;   5.458;   4.034;   3.418;  -1.335;;;;;;;;;;;;;;;;;;
2005-05-21T00:03:08.117Z;0;7.4310e+00;0;     0.358;  3736.320;  24763.357; 0;  24479.865;  24763.357;  26419.205;  22682.885;  8;   5.452; 174.601; 177.430;; 186.888; 160.130;  14.687; -14.159; -14.546;   5.799;   5.455;   4.031;   3.420;  -1.334;;;;;;;;;;;;;;;;;;
2005-05-21T00:03:24.117Z;0;7.5310e+00;0;     0.368;  3740.912;  24925.850; 0;  24643.529;  24925.850;  26584.867;  22843.955;  8;   5.449; 174.719; 177.546;; 187.004; 160.249;  14.689; -14.150; -14.537;   5.796;   5.453;   4.028;   3.421;  -1.332;;;;;;;;;;;;;;;;;;
2005-05-21T00:03:40.117Z;0;7.8360e+00;0;     0.286;  3740.912;  25413.654; 0;  25136.814;  25413.654;  27076.766;  23335.854;  8;   5.447; 174.836; 177.661;; 187.120; 160.369;  14.691; -14.140; -14.527;   5.793;   5.451;   4.024;   3.422;  -1.331;;;;;;;;;;;;;;;;;;
2005-05-21T00:03:56.115Z;0;7.7410e+00;0;     0.325;  3748.640;  25264.906; 0;  24985.260;  25264.906;  26929.783;  23181.145;  8;   5.445; 174.954; 177.777;; 187.237; 160.488;  14.694; -14.130; -14.518;   5.790;   5.449;   4.021;   3.423;  -1.329;;;;;;;;;;;;;;;;;;
2005-05-21T00:04:12.115Z;0;7.3490e+00;0;     0.414;  3748.640;  24630.656; 0;  24343.725;  24630.656;  26290.094;  22541.453;  8;   5.443; 175.071; 177.893;; 187.353; 160.607;  14.696; -14.121; -14.508;   5.788;   5.447;   4.018;   3.424;  -1.328;;;;;;;;;;;;;;;;;;
2005-05-21T00:04:28.115Z;0;7.7240e+00;0;     0.300;  3755.024;  25237.982; 0;  24957.074;  25237.982;  26905.109;  23150.084;  8;   5.441; 175.189; 178.008;; 187.469; 160.727;  14.698; -14.111; -14.499;   5.785;   5.445;   4.014;   3.425;  -1.327;;;;;;;;;;;;;;;;;;
2005-05-21T00:04:44.115Z;0;7.5500e+00;0;     0.403;  3755.024;  24958.639; 0;  24674.551;  24958.639;  26623.391;  22868.367;  8;   5.439; 175.306; 178.124;; 187.586; 160.846;  14.700; -14.101; -14.489;   5.782;   5.443;   4.011;   3.426;  -1.325;;;;;;;;;;;;;;;;;;
2005-05-21T00:05:16.115Z;0;7.4950e+00;0;     0.406;  3770.928;  24871.770; 0;  24584.244;  24871.770;  26541.902;  22770.975;  8;   5.435; 175.541; 178.355;; 187.819; 161.084;  14.704; -14.082; -14.470;   5.777;   5.439;   4.004;   3.428;  -1.322;;;;;;;;;;;;;;;;;;
2005-05-21T00:05:32.115Z;0;7.4490e+00;0;     0.414;  3770.928;  24797.691; 0;  24509.297;  24797.691;  26467.176;  22696.248;  8;   5.433; 175.659; 178.470;; 187.936; 161.204;  14.707; -14.072; -14.461;   5.774;   5.437;   4.001;   3.430;  -1.321;;;;;;;;;;;;;;;;;;
2005-05-21T00:06:04.115Z;0;7.6660e+00;0;     0.380;  3778.040;  25148.873; 0;  24863.473;  25148.873;  26824.148;  23046.109;  8;   5.428; 175.893; 178.701;; 188.169; 161.442;  14.711; -14.053; -14.442;   5.769;   5.432;   3.994;   3.432;  -1.318;;;;;;;;;;;;;;;;;;
2005-05-21T00:06:20.115Z;0;7.3820e+00;0;     0.433;  3786.636;  24690.555; 0;  24398.461;  24690.555;  26365.129;  22578.492;  8;   5.426; 176.011; 178.817;; 188.286; 161.561;  14.713; -14.043; -14.432;   5.766;   5.430;   3.991;   3.433;  -1.317;;;;;;;;;;;;;;;;;;
2005-05-21T00:06:36.115Z;0;8.1850e+00;0;     0.413;  3786.636;  25969.160; 0;  25691.607;  25969.160;  27654.594;  23867.957;  8;   5.424; 176.128; 178.932;; 188.403; 161.680;  14.715; -14.033; -14.423;   5.763;   5.428;   3.988;   3.434;  -1.315;;;;;;;;;;;;;;;;;;
2005-05-21T00:06:52.115Z;0;8.5450e+00;0;     0.476;  3793.720;  26523.600; 0;  26250.887;  26523.600;  28216.189;  24422.469;  8;   5.422; 176.245; 179.047;; 188.520; 161.799;  14.718; -14.024; -14.413;   5.760;   5.426;   3.984;   3.435;  -1.314;;;;;;;;;;;;;;;;;;
2005-05-21T00:09:48.113Z;0;6.3770e+00;0;     0.298;  3829.280;  22998.701; 0;  22677.674;  22998.701;  24672.994;  20843.715;  8;   5.399; 177.534; 180.315;; 189.809; 163.108;  14.742; -13.916; -14.307;   5.731;   5.403;   3.948;   3.447;  -1.298;;;;;;;;;;;;;;;;;;
2005-05-21T00:10:04.113Z;0;6.4550e+00;0;     0.259;  3829.280;  23134.520; 0;  22815.402;  23134.520;  24810.238;  20980.959;  8;   5.397; 177.651; 180.430;; 189.926; 163.227;  14.744; -13.906; -14.297;   5.728;   5.401;   3.944;   3.448;  -1.297;;;;;;;;;;;;;;;;;;
2005-05-21T00:10:52.113Z;0;6.4040e+00;0;     0.260;  3843.000;  23047.688; 0;  22725.035;  23047.688;  24727.627;  20884.627;  8;   5.391; 178.001; 180.776;; 190.270; 163.579;  14.751; -13.876; -14.268;   5.720;   5.395;   3.934;   3.452;  -1.293;;;;;;;;;;;;;;;;;;
2005-05-21T00:11:56.113Z;0;7.1830e+00;0;     0.406;  3853.080;  24373.734; 0;  24067.254;  24373.734;  26070.779;  22217.699;  8;   5.382; 178.469; 181.235;; 190.727; 164.047;  14.760; -13.836; -14.229;   5.709;   5.386;   3.921;   3.456;  -1.287;;;;;;;;;;;;;;;;;;
2005-05-21T00:12:12.113Z;0;7.5210e+00;0;     0.336;  3853.080;  24926.955; 0;  24627.359;  24926.955;  26629.139;  22776.059;  8;   5.380; 178.586; 181.350;; 190.841; 164.163;  14.762; -13.826; -14.219;   5.706;   5.384;   3.917;   3.457;  -1.286;;;;;;;;;;;;;;;;;;
2005-05-21T00:12:28.113Z;0;7.3580e+00;0;     0.406;  3862.208;  24663.920; 0;  24359.645;  24663.920;  26367.172;  22504.965;  8;   5.378; 178.703; 181.465;; 190.955; 164.280;  14.764; -13.816; -14.209;   5.704;   5.382;   3.914;   3.458;  -1.284;;;;;;;;;;;;;;;;;;
2005-05-21T00:13:32.113Z;0;7.6850e+00;0;     0.347;  3877.916;  25194.838; 0;  24894.611;  25194.838;  26908.963;  23031.047;  8;   5.370; 179.170; 181.925;; 191.410; 164.746;  14.773; -13.776; -14.169;   5.693;   5.374;   3.900;   3.462;  -1.279;;;;;;;;;;;;;;;;;;
2005-05-21T00:13:48.113Z;0;7.6660e+00;0;     0.300;  3885.000;  25164.775; 0;  24863.078;  25164.775;  26881.346;  22996.346;  8;   5.368; 179.286; 182.039;; 191.524; 164.862;  14.775; -13.766; -14.160;   5.690;   5.372;   3.897;   3.464;  -1.277;;;;;;;;;;;;;;;;;;
2005-05-21T00:14:04.113Z;0;7.4510e+00;0;     0.364;  3885.000;  24817.996; 0;  24512.031;  24817.996;  26531.379;  22646.379;  8;   5.366; 179.403; 182.154;; 191.637; 164.978;  14.777; -13.756; -14.150;   5.687;   5.370;   3.894;   3.465;  -1.276;;;;;;;;;;;;;;;;;;
2005-05-21T00:14:20.111Z;0;7.5330e+00;0;     0.326;  3896.732;  24952.785; 0;  24646.643;  24952.785;  26671.898;  22775.168;  8;   5.364; 179.519; 182.269;; 191.751; 165.094;  14.780; -13.746; -14.140;   5.685;   5.367;   3.890;   3.466;  -1.274;;;;;;;;;;;;;;;;;;
2005-05-21T00:14:52.111Z;0;8.0190e+00;0;     0.315;  3903.480;  25726.682; 0;  25428.822;  25726.682;  27455.354;  23551.873;  8;   5.360; 179.753; 182.498;; 191.977; 165.326;  14.784; -13.725; -14.120;   5.679;   5.363;   3.884;   3.468;  -1.272;;;;;;;;;;;;;;;;;;
2005-05-21T00:15:08.111Z;0;9.6610e+00;0;     0.419;  3903.480;  28183.414; 0;  27911.783;  28183.414;  29931.678;  26028.199;  8;   5.357; 179.869; 182.613;; 192.090; 165.442;  14.786; -13.715; -14.110;   5.677;   5.361;   3.880;   3.469;  -1.270;;;;;;;;;;;;;;;;;;
2005-05-21T00:15:24.111Z;0;8.5480e+00;0;     0.235;  3920.672;  26545.439; 0;  26254.309;  26545.439;  28287.729;  24367.057;  8;   5.355; 179.986; 182.728;; 192.203; 165.557;  14.789; -13.705; -14.100;   5.674;   5.359;   3.877;   3.470;  -1.269;;;;;;;;;;;;;;;;;;
2005-05-21T00:15:40.111Z;0;8.1350e+00;0;     0.409;  3920.672;  25911.629; 0;  25613.295;  25911.629;  27648.539;  23727.867;  8;   5.353; 180.102; 182.842;; 192.316; 165.673;  14.791; -13.695; -14.090;   5.671;   5.357;   3.874;   3.471;  -1.267;;;;;;;;;;;;;;;;;;
2005-05-21T00:15:56.111Z;0;7.7500e+00;0;     0.181;  3928.120;  25305.297; 0;  24998.559;  25305.297;  27039.654;  23111.535;  8;   5.351; 180.219; 182.957;; 192.429; 165.788;  14.793; -13.685; -14.080;   5.668;   5.355;   3.870;   3.472;  -1.266;;;;;;;;;;;;;;;;;;
2005-05-21T00:16:28.111Z;0;9.1480e+00;0;     0.369;  3935.876;  27444.580; 0;  27160.889;  27444.580;  29200.025;  25264.150;  8;   5.347; 180.452; 183.186;; 192.654; 166.019;  14.798; -13.664; -14.060;   5.663;   5.351;   3.863;   3.474;  -1.263;;;;;;;;;;;;;;;;;;
2005-05-21T00:17:16.111Z;0;9.2890e+00;0;     0.317;  3956.792;  27653.297; 0;  27368.752;  27653.297;  29418.561;  25461.770;  8;   5.341; 180.801; 183.530;; 192.991; 166.364;  14.804; -13.634; -14.030;   5.655;   5.344;   3.853;   3.478;  -1.259;;;;;;;;;;;;;;;;;;
2005-05-21T00:17:32.111Z;0;1.0730e+01;0;     0.257;  3956.792;  29680.854; 0;  29415.930;  29680.854;  31460.779;  27503.986;  8;   5.339; 180.917; 183.644;; 193.104; 166.479;  14.807; -13.624; -14.020;   5.652;   5.342;   3.850;   3.479;  -1.257;;;;;;;;;;;;;;;;;;
2005-05-21T00:17:48.111Z;0;1.0910e+01;0;     0.200;  3963.960;  29921.285; 0;  29657.551;  29921.285;  31705.684;  27741.725;  8;   5.337; 181.034; 183.759;; 193.216; 166.594;  14.809; -13.613; -14.010;   5.650;   5.340;   3.846;   3.480;  -1.256;;;;;;;;;;;;;;;;;;
2005-05-21T00:18:04.111Z;0;1.0840e+01;0;     0.217;  3963.960;  29837.139; 0;  29572.654;  29837.139;  31620.977;  27657.016;  8;   5.335; 181.150; 183.873;; 193.328; 166.708;  14.811; -13.603; -13.999;   5.647;   5.338;   3.843;   3.481;  -1.255;;;;;;;;;;;;;;;;;;
2005-05-21T00:18:20.111Z;0;1.0860e+01;0;     0.207;  3975.440;  29857.633; 0;  29591.791;  29857.633;  31646.195;  27670.756;  8;   5.332; 181.266; 183.987;; 193.440; 166.823;  14.813; -13.593; -13.989;   5.644;   5.336;   3.840;   3.482;  -1.253;;;;;;;;;;;;;;;;;;
2005-05-21T00:18:36.111Z;0;1.0700e+01;0;     0.217;  3975.440;  29643.406; 0;  29375.627;  29643.406;  31430.520;  27455.080;  8;   5.330; 181.382; 184.102;; 193.552; 166.938;  14.816; -13.582; -13.979;   5.642;   5.334;   3.836;   3.483;  -1.252;;;;;;;;;;;;;;;;;;
2005-05-21T00:19:08.111Z;0;1.0790e+01;0;     0.208;  3982.440;  29764.213; 0;  29496.586;  29764.213;  31554.939;  27572.500;  8;   5.326; 181.615; 184.330;; 193.775; 167.166;  14.820; -13.562; -13.959;   5.636;   5.330;   3.830;   3.485;  -1.249;;;;;;;;;;;;;;;;;;
2005-05-21T00:19:24.111Z;0;1.1060e+01;0;     0.142;  3989.776;  30127.715; 0;  29862.365;  30127.715;  31923.812;  27934.035;  8;   5.324; 181.731; 184.445;; 193.887; 167.281;  14.822; -13.551; -13.949;   5.633;   5.328;   3.826;   3.486;  -1.248;;;;;;;;;;;;;;;;;;
2005-05-21T00:19:40.109Z;0;1.0950e+01;0;     0.164;  3989.776;  29985.068; 0;  29718.445;  29985.068;  31780.213;  27790.438;  8;   5.322; 181.847; 184.559;; 193.998; 167.395;  14.825; -13.541; -13.939;   5.631;   5.326;   3.823;   3.487;  -1.246;;;;;;;;;;;;;;;;;;
2005-05-21T00:19:56.109Z;0;1.0960e+01;0;     0.157;  3996.720;  30001.820; 0;  29734.416;  30001.820;  31799.852;  27803.131;  8;   5.320; 181.963; 184.673;; 194.109; 167.509;  14.827; -13.531; -13.928;   5.628;   5.324;   3.819;   3.488;  -1.245;;;;;;;;;;;;;;;;;;
2005-05-21T00:20:12.109Z;0;1.0920e+01;0;     0.140;  3996.720;  29938.754; 0;  29670.781;  29938.754;  31736.359;  27739.641;  8;   5.318; 182.079; 184.787;; 194.223; 167.625;  14.829; -13.520; -13.918;   5.625;   5.322;   3.816;   3.489;  -1.243;;;;;;;;;;;;;;;;;;
2005-05-21T00:20:28.109Z;0;1.0680e+01;0;     0.200;  4000.612;  29618.098; 0;  29346.666;  29618.098;  31415.064;  27414.453;  8;   5.316; 182.196; 184.902;; 194.337; 167.741;  14.831; -13.510; -13.908;   5.623;   5.319;   3.813;   3.490;  -1.242;;;;;;;;;;;;;;;;;;
2005-05-21T00:20:44.109Z;0;1.0490e+01;0;     0.308;  4000.612;  29358.770; 0;  29084.918;  29358.770;  31153.928;  27153.316;  8;   5.314; 182.312; 185.016;; 194.451; 167.858;  14.834; -13.500; -13.898;   5.620;   5.317;   3.809;   3.491;  -1.240;;;;;;;;;;;;;;;;;;
2005-05-21T00:21:48.109Z;0;1.1040e+01;0;     0.184;  4021.920;  30111.533; 0;  29841.727;  30111.533;  31920.365;  27898.445;  8;   5.305; 182.776; 185.472;; 194.908; 168.326;  14.843; -13.458; -13.857;   5.609;   5.309;   3.796;   3.496;  -1.235;;;;;;;;;;;;;;;;;;
2005-05-21T00:22:04.109Z;0;1.0830e+01;0;     0.191;  4021.920;  29827.699; 0;  29555.301;  29827.699;  31634.596;  27612.676;  8;   5.303; 182.892; 185.586;; 195.022; 168.443;  14.845; -13.447; -13.846;   5.607;   5.307;   3.792;   3.497;  -1.233;;;;;;;;;;;;;;;;;;
2005-05-21T00:22:20.109Z;0;1.0970e+01;0;     0.186;  4035.864;  30015.535; 0;  29742.969;  30015.535;  31829.275;  27793.412;  8;   5.301; 183.008; 185.700;; 195.136; 168.560;  14.847; -13.437; -13.836;   5.604;   5.305;   3.789;   3.498;  -1.232;;;;;;;;;;;;;;;;;;
2005-05-21T00:22:36.109Z;0;1.0940e+01;0;     0.184;  4035.864;  29980.225; 0;  29707.334;  29980.225;  31793.723;  27757.859;  8;   5.299; 183.123; 185.814;; 195.251; 168.677;  14.850; -13.427; -13.826;   5.601;   5.303;   3.785;   3.499;  -1.230;;;;;;;;;;;;;;;;;;
2005-05-21T00:22:52.109Z;0;1.0980e+01;0;     0.191;  4042.920;  30028.326; 0;  29754.918;  30028.326;  31844.965;  27802.045;  8;   5.297; 183.239; 185.928;; 195.365; 168.794;  14.852; -13.416; -13.816;   5.599;   5.301;   3.782;   3.500;  -1.229;;;;;;;;;;;;;;;;;;
2005-05-21T00:23:08.109Z;0;1.0910e+01;0;     0.222;  4042.920;  29934.025; 0;  29659.748;  29934.025;  31750.016;  27707.096;  8;   5.295; 183.355; 186.042;; 195.480; 168.911;  14.854; -13.405; -13.805;   5.596;   5.299;   3.778;   3.501;  -1.228;;;;;;;;;;;;;;;;;;
2005-05-21T00:23:24.109Z;0;1.1040e+01;0;     0.205;  4050.200;  30115.373; 0;  29841.775;  30115.373;  31935.510;  27885.311;  8;   5.293; 183.471; 186.156;; 195.594; 169.028;  14.856; -13.395; -13.795;   5.593;   5.297;   3.775;   3.502;  -1.226;;;;;;;;;;;;;;;;;;
2005-05-21T00:23:40.109Z;0;1.0880e+01;0;     0.258;  4050.200;  29896.098; 0;  29620.475;  29896.098;  31714.721;  27664.521;  8;   5.291; 183.587; 186.270;; 195.709; 169.145;  14.859; -13.384; -13.785;   5.590;   5.295;   3.772;   3.503;  -1.225;;;;;;;;;;;;;;;;;;
2005-05-21T00:23:56.109Z;0;1.0990e+01;0;     0.216;  4057.200;  30045.084; 0;  29769.887;  30045.084;  31867.525;  27810.324;  8;   5.289; 183.703; 186.384;; 195.823; 169.263;  14.861; -13.374; -13.774;   5.588;   5.292;   3.768;   3.504;  -1.223;;;;;;;;;;;;;;;;;;
2005-05-21T00:24:12.109Z;0;1.0850e+01;0;     0.234;  4057.200;  29862.596; 0;  29585.701;  29862.596;  31683.768;  27626.568;  8;   5.287; 183.818; 186.498;; 195.938; 169.380;  14.863; -13.363; -13.764;   5.585;   5.290;   3.765;   3.505;  -1.222;;;;;;;;;;;;;;;;;;
2005-05-21T00:24:28.109Z;0;1.0870e+01;0;     0.234;  4068.736;  29886.475; 0;  29608.221;  29886.475;  31712.396;  27643.660;  8;   5.285; 183.934; 186.612;; 196.053; 169.497;  14.866; -13.353; -13.753;   5.582;   5.288;   3.761;   3.506;  -1.220;;;;;;;;;;;;;;;;;;
2005-05-21T00:24:44.107Z;0;1.1060e+01;0;     0.179;  4068.736;  30136.797; 0;  29860.875;  30136.797;  31964.463;  27895.727;  8;   5.283; 184.050; 186.726;; 196.168; 169.615;  14.868; -13.342; -13.743;   5.580;   5.286;   3.758;   3.507;  -1.219;;;;;;;;;;;;;;;;;;
2005-05-21T00:25:00.107Z;0;1.1270e+01;0;     0.178;  4075.960;  30414.387; 0;  30140.031;  30414.387;  32246.834;  28170.873;  8;   5.281; 184.165; 186.840;; 196.282; 169.732;  14.870; -13.332; -13.733;   5.577;   5.284;   3.755;   3.508;  -1.218;;;;;;;;;;;;;;;;;;
2005-05-21T00:25:16.107Z;0;1.1110e+01;0;     0.225;  4085.900;  30210.701; 0;  29933.123;  30210.701;  32045.709;  27959.809;  8;   5.279; 184.281; 186.953;; 196.397; 169.850;  14.873; -13.321; -13.722;   5.574;   5.282;   3.751;   3.509;  -1.216;;;;;;;;;;;;;;;;;;
2005-05-21T00:25:32.107Z;0;1.0660e+01;0;     0.299;  4085.900;  29601.779; 0;  29318.438;  29601.779;  31432.479;  27346.578;  8;   5.276; 184.397; 187.067;; 196.512; 169.967;  14.875; -13.310; -13.712;   5.572;   5.280;   3.748;   3.510;  -1.215;;;;;;;;;;;;;;;;;;
2005-05-21T00:25:48.107Z;0;1.1010e+01;0;     0.279;  4093.040;  30078.768; 0;  29798.980;  30078.768;  31915.693;  27822.654;  8;   5.274; 184.512; 187.181;; 196.627; 170.085;  14.877; -13.300; -13.701;   5.569;   5.278;   3.744;   3.511;  -1.213;;;;;;;;;;;;;;;;;;
2005-05-21T00:26:04.107Z;0;1.1230e+01;0;     0.207;  4093.040;  30371.096; 0;  30094.027;  30371.096;  32210.053;  28117.014;  8;   5.272; 184.628; 187.294;; 196.742; 170.203;  14.879; -13.289; -13.691;   5.566;   5.276;   3.741;   3.512;  -1.212;;;;;;;;;;;;;;;;;;
2005-05-21T00:26:20.107Z;0;1.1320e+01;0;     0.186;  4102.588;  30493.164; 0;  30215.920;  30493.164;  32336.764;  28234.176;  8;   5.270; 184.744; 187.408;; 196.857; 170.321;  14.882; -13.278; -13.680;   5.564;   5.274;   3.737;   3.513;  -1.210;;;;;;;;;;;;;;;;;;
2005-05-21T00:26:36.107Z;0;1.1520e+01;0;     0.156;  4102.588;  30757.320; 0;  30482.479;  30757.320;  32602.715;  28500.127;  8;   5.268; 184.859; 187.522;; 196.972; 170.438;  14.884; -13.268; -13.670;   5.561;   5.272;   3.734;   3.514;  -1.209;;;;;;;;;;;;;;;;;;
2005-05-21T00:26:52.107Z;0;1.1670e+01;0;     0.149;  4109.560;  30952.225; 0;  30678.195;  30952.225;  32801.711;  28692.152;  8;   5.266; 184.975; 187.635;; 197.087; 170.556;  14.886; -13.257; -13.659;   5.558;   5.270;   3.731;   3.515;  -1.208;;;;;;;;;;;;;;;;;;
2005-05-21T00:27:08.107Z;0;1.1450e+01;0;     0.166;  4109.560;  30664.727; 0;  30388.105;  30664.727;  32512.277;  28402.717;  8;   5.264; 185.090; 187.749;; 197.203; 170.674;  14.889; -13.246; -13.649;   5.556;   5.268;   3.727;   3.516;  -1.206;;;;;;;;;;;;;;;;;;
2005-05-21T00:27:24.107Z;0;1.1420e+01;0;     0.147;  4117.568;  30626.867; 0;  30348.816;  30626.867;  32477.352;  28359.783;  8;   5.262; 185.206; 187.863;; 197.318; 170.792;  14.891; -13.236; -13.638;   5.553;   5.265;   3.724;   3.517;  -1.205;;;;;;;;;;;;;;;;;;
2005-05-21T00:27:40.107Z;0;1.1870e+01;0;     0.121;  4117.568;  31205.758; 0;  30932.910;  31205.758;  33060.133;  28942.564;  8;   5.260; 185.321; 187.976;; 197.433; 170.910;  14.893; -13.225; -13.628;   5.550;   5.263;   3.720;   3.518;  -1.203;;;;;;;;;;;;;;;;;;
2005-05-21T00:27:56.107Z;0;1.1870e+01;0;     0.123;  4124.400;  31209.820; 0;  30936.100;  31209.820;  33066.957;  28942.557;  8;   5.258; 185.436; 188.090;; 197.549; 171.028;  14.896; -13.214; -13.617;   5.548;   5.261;   3.717;   3.519;  -1.202;;;;;;;;;;;;;;;;;;
2005-05-21T00:28:12.107Z;0;1.2160e+01;0;     0.156;  4124.400;  31584.965; 0;  31314.523;  31584.965;  33444.551;  29320.152;  8;   5.256; 185.552; 188.203;; 197.664; 171.146;  14.898; -13.203; -13.606;   5.545;   5.259;   3.713;   3.520;  -1.200;;;;;;;;;;;;;;;;;;
2005-05-21T00:28:28.107Z;0;1.1880e+01;0;     0.122;  4134.424;  31226.268; 0;  30951.354;  31226.268;  33087.523;  28953.100;  8;   5.254; 185.667; 188.317;; 197.779; 171.264;  14.900; -13.193; -13.596;   5.542;   5.257;   3.710;   3.521;  -1.199;;;;;;;;;;;;;;;;;;
2005-05-21T00:28:44.107Z;0;1.1740e+01;0;     0.113;  4134.424;  31050.398; 0;  30773.914;  31050.398;  32910.480;  28776.055;  8;   5.252; 185.783; 188.430;; 197.895; 171.382;  14.903; -13.182; -13.585;   5.540;   5.255;   3.707;   3.522;  -1.198;;;;;;;;;;;;;;;;;;
2005-05-21T00:29:16.107Z;0;1.1930e+01;0;     0.116;  4150.440;  31299.252; 0;  31022.848;  31299.252;  33167.398;  29016.959;  8;   5.248; 186.013; 188.657;; 198.126; 171.619;  14.907; -13.160; -13.564;   5.534;   5.251;   3.700;   3.524;  -1.195;;;;;;;;;;;;;;;;;;
2005-05-21T00:29:32.107Z;0;1.1850e+01;0;     0.113;  4150.440;  31191.561; 0;  30914.193;  31191.561;  33058.988;  28908.547;  8;   5.245; 186.129; 188.770;; 198.242; 171.737;  14.910; -13.149; -13.553;   5.532;   5.249;   3.696;   3.526;  -1.193;;;;;;;;;;;;;;;;;;
2005-05-21T00:29:48.107Z;0;1.1870e+01;0;     0.112;  4157.720;  31222.041; 0;  30943.969;  31222.041;  33092.582;  28934.861;  8;   5.243; 186.244; 188.884;; 198.357; 171.855;  14.912; -13.139; -13.543;   5.529;   5.247;   3.693;   3.527;  -1.192;;;;;;;;;;;;;;;;;;
2005-05-21T00:30:04.105Z;0;1.1980e+01;0;     0.118;  4157.720;  31357.408; 0;  31080.547;  31357.408;  33228.852;  29071.133;  8;   5.241; 186.359; 188.997;; 198.473; 171.973;  14.914; -13.128; -13.532;   5.526;   5.245;   3.689;   3.528;  -1.190;;;;;;;;;;;;;;;;;;
2005-05-21T00:30:20.105Z;0;1.1970e+01;0;     0.112;  4165.672;  31345.344; 0;  31067.311;  31345.344;  33219.887;  29054.215;  8;   5.239; 186.474; 189.110;; 198.587; 172.090;  14.916; -13.117; -13.521;   5.524;   5.243;   3.686;   3.529;  -1.189;;;;;;;;;;;;;;;;;;
2005-05-21T00:30:36.105Z;0;1.1890e+01;0;     0.109;  4165.672;  31245.158; 0;  30966.225;  31245.158;  33119.031;  28953.357;  8;   5.237; 186.589; 189.224;; 198.701; 172.207;  14.919; -13.106; -13.511;   5.521;   5.241;   3.683;   3.530;  -1.188;;;;;;;;;;;;;;;;;;